Regional Weather Roundup
Issued by NWS

Home | Current Version | Previous Version | Graphics & Text | Print | Product List | Glossary On
Versions: 1 2 3 4 5 6 7 8 9 10 11 12 13 14 15 16 17 18 19 20 21 22 23 24 25 26 27 28 29 30 31 32 33 34 35 36 37 38 39 40 41 42 43 44 45 46 47 48 49 50
000
ASUS43 KFSD 232310
RWRSD

WEATHER ROUNDUP FOR SOUTH DAKOTA
NATIONAL WEATHER SERVICE SIOUX FALLS SD
500 PM CST THU NOV 23 2017

NOTE: "FAIR" INDICATES FEW OR NO CLOUDS BELOW 12,000 FEET WITH NO
SIGNIFICANT WEATHER AND/OR OBSTRUCTIONS TO VISIBILITY.


SDZ001>005-009-010-012>017-240000-
NORTHWEST AND NORTH CENTRAL SOUTH DAKOTA

CITY           SKY/WX    TMP DP  RH WIND       PRES   REMARKS
FAITH            N/A     62  39  42 S13       29.67F
MOBRIDGE       CLEAR     56  39  53 SE8       29.59F
$$

SDZ012>016-024>037-041>051-057-063-072>074-240000-
SOUTHWEST AND SOUTH CENTRAL SOUTH DAKOTA

CITY           SKY/WX    TMP DP  RH WIND       PRES   REMARKS
RAPID CTY ARPT PTCLDY    67  32  27 W9        29.72F
PIERRE         CLOUDY    62  42  47 S8        29.66F
CUSTER         CLOUDY    53  34  48 W8        29.87F
ELLSWORTH AFB  CLOUDY    67  34  29 W12       29.71F
PHILIP         PTCLDY    67  40  37 SW6       29.68F
PINE RIDGE     CLEAR     67  37  33 W5        29.79F
SPEARFISH      FAIR      63  32  31 W14G20    29.77R
WINNER         FAIR      67  41  38 S8        29.74F
$$

SDZ004>011-016>023-039-040-240000-
NORTHEAST SOUTH DAKOTA

CITY           SKY/WX    TMP DP  RH WIND       PRES   REMARKS
ABERDEEN       PTCLDY    51  38  60 S10       29.64F
WATERTOWN      PTCLDY    47  37  68 S12       29.68F
BROOKINGS      PTCLDY    51  37  58 S9        29.72F
SISSETON         N/A     54  38  54 SW18      29.60F
$$

SDZ017-020-022-023-036>040-048>070-240000-
SOUTHEAST SOUTH DAKOTA

CITY           SKY/WX    TMP DP  RH WIND       PRES   REMARKS
SIOUX FALLS    CLOUDY    53  39  59 S5        29.75F
HURON          CLOUDY    54  40  59 S5        29.69F
CHAMBERLAIN    CLOUDY    62  44  51 SW3       29.71F
MITCHELL       CLOUDY    60  42  51 S8        29.71F
YANKTON        PTCLDY    64  43  46 S5        29.76F HAZE
$$

ABBREVIATIONS USED IN REMARKS
   TC - TEMPERATURE IN CELSIUS
  WCI - WIND CHILL INDEX
   HX - HEAT INDEX
  VSB - VISIBILITY




USA.gov is the U.S. government's official web portal to all federal, state and local government web resources and services.